Hourly Data Report for November 07, 2021

MOUNT FOREST (AUT)
ONTARIO
Current Station Operator: ECCC - MSC

43°59'00.000" N
80°45'00.000" W
414.50 m
6145504
71631
WLS

Download Data

Hourly Data (November 2021)
Hourly Data Report for November 7, 2021
TIME
LST
Temp Definition
°C
Dew Point Definition
°C
Rel Hum Definition
%
Precip. Amount Definition
mm

Wind Dir Definition
10's deg

Wind Spd Definition
km/h
Visibility Definition
km
Stn Press Definition
kPa
Hmdx Definition


Wind Chill Definition


Weather Definition


00:00 3.4 -0.6 75 0.0 19 9   97.09     LegendNANA
01:00 3.2 -0.5 76 0.0 19 11   97.04     LegendNANA
02:00 3.2 -0.6 76 0.0 18 8   97.04     LegendNANA
03:00 3.1 -0.6 77 0.0 19 9   96.99     LegendNANA
04:00 3.2 -0.5 77 0.0 20 11   96.94     LegendNANA
05:00 3.1 -0.5 77 0.0 19 11   96.97     LegendNANA
06:00 2.7 -0.6 78 0.0 20 13   96.97     LegendNANA
07:00 2.7 -0.6 79 0.0 20 10   96.97     LegendNANA
08:00 3.5 -0.3 76 0.0 19 10   97.03     LegendNANA
09:00 5.9 1.1 72 0.0 20 9   97.03     LegendNANA
10:00 8.2 3.0 70 0.0 23 13   97.03     LegendNANA
11:00 9.8 3.9 67 0.0 23 12   97.06     LegendNANA
12:00 11.5 4.9 64 0.0 24 11   97.04     LegendNANA
13:00 12.6 5.5 62 0.0 25 13   97.00     LegendNANA
14:00 13.6 6.1 61 0.0 24 14   96.96     LegendNANA
15:00 13.9 6.2 60 0.0 23 13   96.95     LegendNANA
16:00 13.1 6.2 63 0.0 24 13   96.97     LegendNANA
17:00 11.0 6.2 72 0.0 25 8   97.03     LegendNANA
18:00 9.6 6.2 79 0.0 21 5   97.09     LegendNANA
19:00 8.5 5.7 83 0.0 21 6   97.07     LegendNANA
20:00 6.8 5.3 90 0.0 20 5   97.11     LegendNANA
21:00 6.6 4.9 89 0.0 18 6   97.12     LegendNANA
22:00 7.3 5.4 88 0.0 18 7   97.13     LegendNANA
23:00 7.0 5.1 87 0.0 19 6   97.10     LegendNANA

Notes on Data Quality.

Legend

  • E = Estimated
  • M = Missing
  • NA = Not Available*
  • [empty] = Indicates an unobserved value
Date modified: